Fort Drum, NY

5:49 PM EST on February 22, 2018 (GMT -0500)
Wheeler-Sack Army Air Field

Weather History for KGTB - March, 2013

Change the Weather History Date:

Thursday, March 28, 2013

  Actual Average Record
Temperature  
Mean Temperature 38 °F -  
Max Temperature 45 °F 40 °F 77 °F (1998)
Min Temperature 32 °F 26 °F 10 °F (2015)
Degree Days  
Heating Degree Days 27    
Moisture  
Dew Point 34 °F    
Average Humidity 80    
Maximum Humidity 97    
Minimum Humidity 69    
Precipitation  
Precipitation 0.00 in - - ()
Sea Level Pressure  
Sea Level Pressure 30.07 in    
Wind  
Wind Speed 7 mph (West)    
Max Wind Speed 14 mph    
Max Gust Speed -    
Visibility 10 miles    
Events Rain    
Averages and records for this station are not official NWS values.
T = Trace of Precipitation, MM = Missing Value Source: NWS Daily Summary

Daily Weather History Graph

Daily Weather History Graph

Search for Another Location

Airport or City:

Trip Planner

Search our weather history database for the weather conditions in past years. The results will help you decide how hot, cold, wet, or windy it might be!

Date:

Astronomy

Mar. 28, 2013 Rise Set
Actual Time 6:51 AM EDT 7:25 PM EDT
Civil Twilight 6:22 AM EDT 7:54 PM EDT
Nautical Twilight 5:47 AM EDT 8:28 PM EDT
Astronomical Twilight 5:12 AM EDT 9:04 PM EDT
Moon 9:19 PM EDT (3/28) 7:13 AM EDT (3/28)
Length of Visible Light 13h 32m
Length of Day
12h 34m
Full, 98% of the Moon is Illuminated
Mar 28
Full
Apr 3
Last Quarter
Apr 10
New
Apr 18
First Quarter
Apr 25
Full

Hourly Weather History & Observations

Time (EDT) Temp. Windchill Dew Point Humidity Pressure Visibility Wind Dir Wind Speed Gust Speed Precip Events Conditions
12:55 AM 33.8 °F 27.7 °F 33.1 °F 97% 29.99 in 10.0 mi WSW 6.9 mph - N/A   Overcast
1:55 AM 34.0 °F 28.8 °F 32.9 °F 96% 29.99 in 10.0 mi SW 5.8 mph - N/A   Overcast
2:55 AM 33.8 °F 28.6 °F 32.5 °F 95% 29.99 in 10.0 mi WSW 5.8 mph - N/A   Overcast
3:55 AM 33.8 °F 29.6 °F 32.4 °F 94% 29.99 in 10.0 mi West 4.6 mph - N/A   Overcast
4:55 AM 33.6 °F 29.4 °F 32.0 °F 94% 30.00 in 10.0 mi West 4.6 mph - N/A   Overcast
5:55 AM 33.3 °F 28.9 °F 31.6 °F 94% 30.00 in 10.0 mi West 4.6 mph - N/A   Overcast
6:55 AM 32.2 °F 27.7 °F 31.1 °F 96% 30.02 in 10.0 mi WSW 4.6 mph - N/A   Mostly Cloudy
7:55 AM 33.8 °F 28.6 °F 32.0 °F 93% 30.04 in 10.0 mi WSW 5.8 mph - N/A   Overcast
8:55 AM 36.1 °F 30.6 °F 32.4 °F 86% 30.05 in 10.0 mi West 6.9 mph - N/A   Mostly Cloudy
9:55 AM 38.3 °F 33.9 °F 32.5 °F 80% 30.06 in 10.0 mi West 5.8 mph - N/A   Scattered Clouds
10:39 AM 39.2 °F 35.0 °F 33.8 °F 81% 30.07 in 10.0 mi Variable 5.8 mph - N/A   Mostly Cloudy
10:51 AM 41.0 °F 36.4 °F 33.8 °F 76% 30.07 in 10.0 mi West 6.9 mph - N/A   Mostly Cloudy
10:54 AM 41.0 °F 37.1 °F 33.8 °F 76% 30.07 in 10.0 mi WSW 5.8 mph - N/A   Mostly Cloudy
10:55 AM 40.3 °F 35.5 °F 33.8 °F 78% 30.07 in 10.0 mi Variable 6.9 mph - N/A   Mostly Cloudy
10:57 AM 41.0 °F 38.0 °F 33.8 °F 76% 30.07 in 10.0 mi Variable 4.6 mph - N/A   Overcast
11:01 AM 41.0 °F 35.8 °F 33.8 °F 76% 30.07 in 10.0 mi NNW 8.1 mph - N/A   Overcast
11:04 AM 41.0 °F 35.8 °F 33.8 °F 76% 30.07 in 10.0 mi West 8.1 mph - N/A   Overcast
11:27 AM 41.0 °F 35.2 °F 33.8 °F 76% 30.07 in 10.0 mi West 9.2 mph - N/A   Light Drizzle
11:40 AM 42.8 °F 38.0 °F 35.6 °F 76% 30.08 in 10.0 mi West 8.1 mph - N/A   Mostly Cloudy
11:48 AM 41.0 °F 35.8 °F 33.8 °F 76% 30.07 in 10.0 mi WNW 8.1 mph - N/A   Light Drizzle
11:50 AM 41.0 °F 35.8 °F 33.8 °F 76% 30.07 in 10.0 mi WNW 8.1 mph - N/A   Light Drizzle
11:55 AM 41.5 °F 37.1 °F 34.3 °F 76% 30.08 in 10.0 mi WNW 6.9 mph - 0.00 in   Light Drizzle
11:57 AM 41.0 °F 37.1 °F 33.8 °F 76% 30.08 in 10.0 mi Variable 5.8 mph - N/A   Mostly Cloudy
12:24 PM 42.8 °F 38.0 °F 35.6 °F 76% 30.08 in 10.0 mi WNW 8.1 mph - N/A   Overcast
12:34 PM 42.8 °F 38.0 °F 35.6 °F 76% 30.07 in 10.0 mi NW 8.1 mph - N/A   Overcast
12:49 PM 42.8 °F 39.3 °F 35.6 °F 76% 30.08 in 10.0 mi Variable 5.8 mph - N/A   Overcast
12:55 PM 42.4 °F 36.5 °F 35.4 °F 76% 30.08 in 10.0 mi West 10.4 mph - 0.00 in Rain Light Rain
1:15 PM 41.0 °F 37.1 °F 37.4 °F 87% 30.08 in 10.0 mi West 5.8 mph - N/A   Overcast
1:46 PM 42.8 °F 37.5 °F 35.6 °F 76% 30.08 in 10.0 mi West 9.2 mph - N/A   Overcast
1:55 PM 42.8 °F 37.5 °F 36.3 °F 78% 30.07 in 10.0 mi West 9.2 mph - 0.00 in   Overcast
1:56 PM 42.8 °F 37.0 °F 35.6 °F 76% 30.07 in 10.0 mi West 10.4 mph - N/A   Overcast
1:57 PM 42.8 °F 37.0 °F 35.6 °F 76% 30.07 in 10.0 mi West 10.4 mph - N/A   Overcast
1:59 PM 42.8 °F 38.0 °F 35.6 °F 76% 30.07 in 10.0 mi West 8.1 mph - N/A   Overcast
2:51 PM 44.6 °F 39.2 °F 35.6 °F 71% 30.07 in 10.0 mi WSW 10.4 mph - N/A   Overcast
2:55 PM 44.6 °F 40.2 °F 35.8 °F 71% 30.07 in 10.0 mi West 8.1 mph - N/A   Overcast
3:55 PM 42.4 °F 35.3 °F 34.5 °F 74% 30.07 in 10.0 mi West 13.8 mph - N/A   Overcast
4:55 PM 44.1 °F 38.1 °F 34.3 °F 69% 30.08 in 10.0 mi West 11.5 mph - N/A   Overcast
5:55 PM 41.4 °F 35.7 °F 34.0 °F 75% 30.09 in 10.0 mi WSW 9.2 mph - N/A   Overcast
6:55 PM 39.6 °F 34.0 °F 34.5 °F 82% 30.11 in 10.0 mi WSW 8.1 mph - N/A   Overcast
7:55 PM 38.7 °F 32.9 °F 33.6 °F 82% 30.12 in 10.0 mi WSW 8.1 mph - N/A   Overcast
8:55 PM 38.3 °F 33.2 °F 33.1 °F 81% 30.13 in 10.0 mi WSW 6.9 mph - N/A   Overcast
9:55 PM 38.3 °F 33.9 °F 32.5 °F 80% 30.14 in 10.0 mi WSW 5.8 mph - N/A   Overcast
10:55 PM 38.5 °F 34.1 °F 32.0 °F 78% 30.14 in 10.0 mi WSW 5.8 mph - N/A   Overcast
11:55 PM 38.3 °F 32.5 °F 31.5 °F 76% 30.14 in 10.0 mi WSW 8.1 mph - N/A   Overcast